Theta_e
288 281 278 279 281 281 282 282 283 284 284 284 283 282 281 281 283 286 288 290 291 289 288 289 291 291 291 291 292 292 294 294 299 307 312 316 323 324 324 325 326 327 329 332 333 333 333 333 332 332 333 333 334 334 335 335 335 335 335 335 333 333 335 335 335 335 335 334 334 335 335 334 334 335 335 335 333 334 334 335 335 335 334 334 336 335
287 279 279 281 282 282 283 284 283 283 283 283 282 281 281 282 281 285 286 290 291 289 285 288 288 289 289 291 292 293 293 293 295 304 311 314 321 323 324 325 325 327 330 330 330 331 331 331 331 332 332 333 331 333 334 334 335 335 335 334 334 333 334 335 335 335 335 335 335 335 334 333 334 335 334 333 332 334 334 334 334 334 334 335 335 336
280 278 282 283 284 284 283 283 283 282 282 282 280 280 279 280 283 286 286 288 290 288 284 287 286 287 289 290 292 292 293 295 295 302 311 316 321 323 324 325 325 326 327 330 331 331 332 332 331 332 332 332 333 333 333 334 334 334 334 334 333 333 333 334 336 335 334 335 335 335 332 335 332 333 336 335 334 335 333 333 333 334 334 335 335 336
277 280 283 285 284 283 283 283 282 282 282 280 279 278 277 282 281 278 283 286 288 287 284 286 285 286 288 290 291 293 294 294 296 299 306 315 322 324 324 325 325 325 327 328 330 330 331 332 331 331 331 332 332 332 332 333 333 334 334 333 332 332 333 334 336 336 335 336 335 335 336 336 335 333 334 333 333 333 332 332 333 334 334 336 336 336
280 284 286 285 283 283 282 283 281 280 279 281 281 280 279 280 281 282 282 286 287 288 288 286 284 283 286 287 289 292 294 296 297 297 302 308 320 326 327 327 327 326 327 328 330 330 330 330 330 331 331 332 331 332 332 333 333 334 333 333 332 333 333 334 336 335 335 336 334 334 334 335 334 334 333 332 331 332 333 333 333 333 334 335 335 335
281 285 286 284 283 282 281 280 281 281 278 279 281 282 282 283 282 283 284 283 281 281 286 285 277 277 283 288 289 291 292 292 294 295 295 302 310 323 325 325 327 327 328 329 330 331 331 331 331 331 331 331 331 332 333 334 334 334 333 333 332 333 333 334 335 335 336 335 334 333 332 331 332 330 331 330 330 331 332 332 333 333 335 335 333 332
283 286 286 284 283 283 281 280 282 282 279 277 278 283 284 284 283 283 282 281 275 276 284 287 278 274 280 284 287 289 290 290 292 293 294 296 306 316 324 326 326 327 327 329 331 332 331 331 330 330 330 331 331 332 334 333 333 334 333 333 332 333 333 334 335 336 336 334 334 334 333 333 332 331 332 330 332 333 333 332 331 333 334 334 332 330
285 284 285 285 284 282 281 279 282 282 279 276 282 284 284 283 282 283 283 282 279 283 285 286 283 277 275 282 287 289 289 289 290 292 293 294 301 312 320 325 326 327 328 328 329 331 332 331 331 330 331 331 332 333 333 333 333 333 333 332 332 333 334 334 335 336 336 334 334 333 333 333 332 332 331 330 329 330 332 332 332 332 333 331 330 328
285 283 284 283 283 282 281 283 284 283 280 279 284 285 283 283 283 283 282 281 281 279 277 280 284 278 276 282 286 289 286 287 288 291 293 294 295 308 315 321 325 327 329 329 329 330 331 331 331 331 331 332 332 332 332 332 333 333 333 332 332 332 334 334 335 335 335 335 334 334 333 332 333 333 331 330 329 329 331 331 330 331 329 328 326 326
286 286 286 286 283 280 284 286 286 284 281 283 285 285 285 285 284 284 280 280 280 278 273 279 282 276 276 281 283 286 286 287 288 291 293 295 296 297 309 316 322 326 329 330 330 331 332 332 332 332 333 332 332 332 332 332 333 333 332 331 332 331 333 334 334 335 335 335 335 333 333 332 331 332 329 329 328 328 330 329 328 328 326 324 323 322
286 292 293 287 284 285 285 286 287 287 287 287 285 283 281 282 281 282 281 279 278 270 275 281 282 280 275 279 283 283 285 288 290 291 293 295 296 295 299 308 315 321 326 329 330 331 332 333 333 333 331 331 332 331 331 331 332 332 331 331 331 332 333 334 334 335 334 334 334 334 333 332 331 331 330 329 329 329 328 327 326 325 324 322 320 319
285 285 285 286 291 290 289 286 288 289 287 285 282 280 278 276 280 278 278 278 271 269 277 281 281 282 275 277 283 287 290 291 291 291 292 293 294 295 295 301 310 317 324 329 330 330 332 332 332 332 330 330 330 330 330 330 331 331 331 330 331 331 332 334 334 334 334 334 334 334 333 333 332 332 331 330 329 329 328 327 325 323 321 319 318 317
281 283 285 286 293 288 286 284 284 287 286 282 280 279 276 270 273 268 275 269 269 272 276 280 281 279 278 282 285 287 289 290 292 293 294 294 295 295 296 298 304 313 320 328 330 330 331 331 331 331 331 330 330 330 330 329 330 331 330 330 330 330 332 333 334 334 333 333 333 333 333 333 333 333 332 332 330 330 328 326 324 322 320 317 316 315
277 281 282 283 286 290 288 281 279 280 282 281 279 276 274 268 267 263 268 272 273 276 280 279 282 277 282 284 288 289 291 292 293 294 295 295 295 296 296 298 301 308 317 326 330 330 331 331 332 332 332 331 331 331 330 329 329 330 330 329 330 330 332 333 334 334 333 333 333 333 333 333 333 333 333 332 331 330 328 326 324 323 320 318 317 316
269 274 280 283 278 285 286 285 284 281 282 280 281 278 275 273 270 263 271 266 270 274 278 282 278 274 276 279 289 291 292 293 294 295 295 296 296 297 298 299 301 305 313 323 329 330 331 331 332 332 332 331 331 331 330 329 329 330 329 329 329 330 331 332 333 333 332 332 332 333 333 333 333 333 333 332 331 329 327 326 325 324 321 320 318 316
277 276 281 285 285 285 284 286 287 286 283 284 285 283 276 275 276 273 272 274 274 275 274 277 275 279 282 288 291 293 292 292 294 294 296 295 296 297 297 297 303 307 313 322 327 330 331 332 332 332 332 332 332 331 330 329 329 329 330 329 329 330 331 332 333 333 333 332 332 332 332 332 332 333 332 331 330 329 328 326 325 323 322 320 317 317
277 275 281 284 285 285 286 287 287 288 276 283 282 277 280 282 281 273 272 277 275 272 270 273 280 282 286 289 291 291 291 292 293 294 294 295 296 296 296 298 300 311 316 322 326 329 330 331 332 332 332 332 332 331 330 330 330 330 330 329 329 330 331 332 332 333 333 332 331 331 331 331 331 332 331 330 329 329 327 326 324 323 321 319 318 317
274 274 280 282 281 285 286 286 286 288 287 283 278 281 284 285 284 275 270 269 272 269 269 277 276 277 280 276 289 289 289 291 291 292 294 296 296 296 297 298 299 312 320 325 327 329 331 331 331 332 332 332 332 331 331 330 331 331 331 330 329 330 330 331 332 332 332 331 331 331 331 331 331 331 331 330 329 328 327 325 323 321 319 319 318 318
282 275 280 283 284 287 287 287 284 286 288 284 282 289 280 271 274 276 273 265 268 268 267 273 277 279 280 281 285 288 288 290 291 292 292 293 294 295 296 298 299 311 321 325 327 328 329 330 331 332 332 333 332 332 332 331 331 331 331 331 331 330 331 331 332 332 332 332 331 331 330 330 330 330 330 329 329 327 326 324 323 321 320 319 318 316
283 274 277 281 282 284 284 283 275 279 284 287 288 285 286 282 278 275 271 274 274 267 269 271 276 275 283 284 287 288 289 289 290 290 291 292 294 295 296 298 300 309 319 324 327 328 329 330 331 331 331 332 332 332 332 331 332 331 331 330 330 331 331 331 331 331 331 331 331 330 330 330 330 329 329 328 327 326 325 324 323 321 319 318 318 315
279 282 271 277 283 282 277 281 277 278 277 279 280 280 281 282 283 280 281 278 273 268 267 268 268 275 283 289 288 289 290 291 291 292 293 294 296 297 298 300 302 310 318 323 326 328 329 330 331 332 332 333 333 333 332 332 331 331 332 331 331 331 330 330 331 331 331 331 331 330 329 329 329 328 328 327 326 326 325 324 323 322 320 318 316 313
281 280 276 279 278 278 278 282 281 280 280 278 279 280 280 278 276 273 271 280 280 276 271 270 271 278 287 294 293 291 294 294 294 294 296 297 299 300 301 302 305 313 319 323 326 328 329 330 331 332 332 333 332 332 332 332 332 331 331 331 331 331 331 331 330 331 331 332 331 330 329 328 328 327 327 326 326 325 325 323 323 321 319 317 315 312
286 282 280 276 279 279 282 285 286 287 287 284 281 280 283 279 279 275 269 270 277 279 282 280 275 278 290 293 294 295 295 296 296 297 297 299 301 303 305 305 306 315 320 324 326 328 329 330 331 331 332 332 332 332 332 332 332 332 332 332 331 331 331 332 331 331 331 331 331 330 329 328 328 327 326 326 325 325 324 323 322 321 318 317 314 312
293 282 277 279 283 285 287 288 288 288 287 284 284 284 281 280 280 278 276 276 277 277 277 273 274 279 290 294 295 295 295 296 297 297 299 302 303 304 305 305 306 316 321 324 327 328 329 330 331 331 331 332 332 332 332 332 332 332 332 332 332 331 331 332 331 332 332 331 331 330 329 328 328 327 326 325 325 324 323 323 321 320 318 316 313 311
282 283 280 277 276 278 279 281 282 285 286 281 279 281 282 282 282 281 282 282 275 278 279 275 272 278 288 294 295 295 295 296 296 298 301 301 303 303 304 306 307 316 322 324 325 327 328 329 330 331 331 331 331 332 332 332 332 332 333 333 332 332 332 332 332 332 332 332 330 329 328 327 327 326 325 324 324 323 322 322 320 318 317 314 312 311
285 283 280 274 272 269 267 267 269 274 279 280 282 281 282 282 281 281 275 277 274 277 280 275 276 283 289 292 293 294 295 295 296 297 301 302 302 303 304 306 308 316 321 323 325 326 327 329 330 331 331 331 331 332 332 332 332 333 333 333 333 332 332 333 333 333 332 331 330 328 327 326 326 325 325 324 323 322 322 321 319 317 316 315 313 311
284 286 283 281 279 276 277 276 279 282 279 278 279 282 281 282 283 282 279 276 276 277 278 280 281 283 286 289 290 292 294 293 294 296 299 301 302 303 304 307 311 317 321 323 324 326 328 329 329 330 330 331 331 331 332 332 332 333 333 333 333 333 333 333 333 332 332 331 329 328 327 326 325 325 324 323 322 322 321 319 318 317 315 315 313 311
285 283 284 284 283 283 284 281 283 285 280 280 279 280 281 281 281 281 278 276 281 279 276 282 285 284 286 289 291 292 293 293 294 296 299 301 302 302 304 306 310 318 322 324 325 326 327 328 329 329 330 330 331 331 332 332 332 332 333 332 333 333 333 333 333 332 331 330 328 327 326 326 325 325 324 323 322 320 320 319 317 316 315 314 312 311
284 281 284 284 283 285 286 284 285 284 284 283 280 280 280 281 281 280 280 283 284 279 277 283 285 285 287 289 291 292 294 294 295 298 300 301 302 302 303 306 312 318 321 323 324 326 327 327 328 329 329 330 330 330 331 331 332 332 333 333 333 333 333 333 332 331 330 329 328 327 326 326 325 324 323 320 320 319 318 318 317 316 315 314 312 312
287 283 284 285 284 285 284 284 285 284 283 284 283 281 281 281 281 282 284 285 285 283 285 285 286 286 289 290 292 293 296 296 298 300 300 300 300 302 304 308 313 319 321 323 324 326 327 328 328 329 329 329 329 329 330 330 331 331 332 332 332 332 333 333 332 331 329 328 327 327 326 325 324 323 321 320 319 318 318 317 316 315 314 313 312 311
288 283 286 284 281 282 285 285 284 284 284 282 284 283 281 281 282 283 284 285 287 285 285 285 285 285 290 293 294 295 297 299 299 298 298 299 301 303 306 310 316 319 322 323 324 326 327 328 328 329 328 329 329 329 329 330 331 331 331 332 332 332 332 333 331 330 329 328 327 326 325 324 322 321 320 320 319 318 317 317 316 315 314 313 312 310
289 284 287 284 280 279 283 285 285 285 285 283 284 282 281 282 281 283 282 285 284 283 284 284 283 284 290 294 295 297 298 297 297 298 298 299 302 304 305 312 317 320 322 323 324 326 327 327 327 327 328 328 329 329 329 329 330 330 330 332 332 332 333 332 331 329 329 328 327 326 324 323 321 320 319 319 318 318 317 317 315 314 313 312 310 309
287 285 283 284 282 277 282 283 284 283 282 280 281 284 283 284 286 287 288 289 289 289 285 281 283 289 292 294 296 297 296 297 298 299 299 300 302 304 306 309 317 320 322 323 324 325 327 327 327 328 328 328 329 329 329 330 330 329 330 331 332 332 332 331 330 329 328 327 326 325 323 322 321 320 319 318 318 317 317 316 315 314 312 311 310 308
289 287 285 287 282 281 282 281 282 279 270 274 285 290 287 285 285 285 286 288 290 291 288 290 290 292 293 296 296 296 296 298 299 301 302 302 303 304 306 309 312 320 323 324 325 326 327 327 328 328 328 328 329 329 330 330 330 331 331 332 332 331 331 330 329 328 327 326 325 324 322 321 320 319 318 318 317 317 317 316 314 314 313 311 309 307
289 288 286 287 283 281 280 277 276 270 274 284 289 291 291 290 289 287 289 290 291 291 291 291 291 292 295 297 297 297 299 301 303 302 303 303 304 304 305 307 311 314 321 323 324 325 326 327 327 327 327 327 328 328 329 329 330 330 331 331 330 331 330 329 328 327 325 324 324 323 321 320 320 318 318 318 317 317 316 316 314 313 312 311 309 307
285 285 284 285 283 282 279 275 270 271 281 288 291 297 296 292 290 289 287 290 292 292 292 291 292 293 296 297 298 299 300 302 302 303 303 303 304 304 305 307 311 315 318 324 324 325 326 326 327 327 327 327 327 328 329 329 330 329 329 331 330 329 329 328 327 325 324 323 322 321 321 320 318 317 316 317 317 316 316 315 314 313 311 310 309 308
294 290 286 284 286 281 280 277 279 282 284 288 290 293 294 290 291 286 282 286 292 297 296 292 294 297 299 299 300 300 301 300 299 300 304 303 305 308 309 310 314 317 320 324 326 326 327 328 327 327 327 327 328 328 329 329 329 329 329 329 329 328 327 327 325 324 322 321 321 321 320 319 318 317 316 316 316 316 315 314 313 312 311 309 308 306
295 287 286 285 283 285 283 280 276 273 275 281 292 296 299 300 299 298 291 286 294 301 302 301 299 300 301 300 300 300 301 299 296 298 302 303 311 312 315 317 319 321 324 325 326 325 325 325 326 326 327 327 327 328 329 329 329 328 327 327 327 327 326 325 324 323 322 321 321 320 320 319 318 317 316 316 316 315 315 315 313 312 310 309 307 306
294 293 289 285 284 285 283 279 276 274 278 286 291 297 300 301 301 299 289 285 293 300 303 303 302 303 303 303 304 303 300 296 297 300 305 305 309 312 314 316 319 322 321 321 323 325 325 325 326 326 327 327 326 328 328 328 328 327 326 326 326 326 325 324 323 322 321 321 321 320 320 319 318 317 316 316 316 316 314 314 313 312 310 310 308 307
290 286 285 284 283 283 281 280 278 275 281 290 295 298 300 301 301 291 281 282 293 300 303 303 303 303 303 305 306 304 298 294 298 302 306 307 310 314 314 315 316 318 320 321 322 322 323 324 325 325 326 326 327 328 328 328 327 326 325 325 326 325 324 324 323 323 323 322 321 320 319 319 317 316 316 316 315 315 314 313 312 310 310 308 308 306
285 284 284 283 282 282 281 276 275 279 285 292 297 299 301 301 293 283 280 284 297 301 303 304 304 304 305 305 307 302 304 305 306 307 305 307 311 312 314 315 318 319 321 323 323 317 324 326 327 326 326 327 328 328 328 328 326 325 324 325 324 324 324 324 323 323 322 321 320 319 318 318 316 314 314 315 315 314 313 312 311 310 309 308 306 305
285 285 285 285 284 282 279 278 278 280 287 295 299 300 301 294 283 282 291 303 303 303 304 305 304 305 305 306 307 307 307 308 310 309 308 309 311 311 314 314 316 317 319 320 318 321 325 325 326 326 327 328 328 328 328 327 325 324 324 324 324 324 324 323 322 322 321 320 319 318 317 314 313 314 315 315 315 313 311 311 311 310 309 307 305 304
286 284 284 284 286 284 280 277 277 278 286 298 299 298 301 287 286 299 303 304 306 305 305 305 306 307 307 306 308 308 307 308 308 308 308 309 310 311 312 314 316 316 317 316 317 321 324 324 325 326 326 327 328 328 328 327 324 323 322 323 323 323 323 322 322 321 320 318 317 315 314 313 312 314 315 314 314 313 311 310 310 309 308 306 305 304
292 285 285 285 289 283 283 281 281 286 293 298 299 290 298 300 303 304 304 301 305 305 305 305 306 308 309 308 308 307 307 306 307 307 308 309 309 310 312 313 314 315 315 317 317 317 317 322 325 326 327 327 327 327 327 326 323 322 322 322 323 322 321 321 321 319 317 315 315 314 313 313 314 315 314 314 313 312 311 310 309 308 307 306 305 304
294 290 291 285 292 288 285 287 293 296 296 300 301 301 302 304 306 306 305 305 304 305 307 306 306 307 309 309 308 307 305 307 308 309 309 310 311 311 311 311 313 314 315 316 318 317 321 321 320 322 323 325 326 327 327 326 323 320 321 322 321 320 320 320 319 318 316 315 315 313 314 314 314 314 314 314 313 311 310 309 308 307 306 306 306 305
297 299 298 294 292 296 296 297 298 299 301 301 304 304 303 304 307 307 306 304 306 306 307 306 307 307 309 310 308 307 306 308 309 311 311 311 313 313 313 313 312 312 314 317 318 320 321 321 321 321 320 320 322 323 323 325 323 320 321 321 320 321 320 319 317 316 315 314 314 314 314 313 313 314 313 313 313 312 311 309 308 307 306 306 306 305
296 298 295 290 293 290 286 295 298 299 301 302 303 306 306 307 306 307 305 305 306 307 307 308 307 308 308 309 309 307 307 309 310 311 310 309 310 311 314 314 314 315 316 317 318 318 321 321 320 319 318 318 320 321 321 321 321 321 321 320 321 320 319 318 316 314 314 314 313 313 313 313 312 311 311 312 312 312 311 310 309 307 306 306 306 305
287 299 294 293 292 288 289 296 298 301 302 304 304 303 303 304 306 307 306 307 307 308 308 308 308 308 309 308 309 308 308 309 309 310 310 311 310 312 313 315 315 314 314 317 318 320 320 320 319 318 318 319 321 322 322 322 322 322 320 320 320 319 318 315 314 314 314 313 313 312 312 312 302 308 311 311 311 310 310 309 309 307 306 306 306 305
292 296 288 294 291 293 295 297 299 300 301 303 304 306 305 306 306 306 306 306 307 307 307 308 308 307 308 307 307 307 308 309 309 310 311 311 311 312 312 313 314 314 315 315 316 317 319 319 318 319 319 319 320 320 321 320 321 322 320 319 319 318 316 314 310 313 313 313 313 312 311 311 310 311 311 311 310 311 311 310 308 308 307 306 307 307
292 287 292 291 286 286 288 293 297 290 290 298 302 303 305 306 307 306 306 306 306 306 307 307 308 309 309 308 306 305 305 306 308 310 311 311 311 311 311 313 313 314 314 315 317 317 317 317 317 316 316 317 319 319 320 321 321 320 320 319 318 318 316 312 312 313 312 312 312 311 310 310 310 311 310 310 310 308 302 294 301 305 307 305 300 299
291 292 291 288 286 288 294 298 299 299 298 300 302 303 305 306 306 305 305 305 306 306 308 308 306 306 307 308 307 307 306 306 307 308 309 310 310 311 311 312 313 313 314 315 316 316 316 316 316 316 316 318 319 319 318 318 319 318 319 319 318 318 315 314 312 311 311 310 310 308 309 309 310 310 310 310 309 306 302 300 296 293 297 300 298 296
Wind_Speed
0 1 4 7 9 4 3 3 7 5 3 6 4 3 4 4 5 4 9 9 3 3 7 11 15 14 11 8 7 6 7 4 8 10 11 11 12 13 13 15 15 14 16 15 10 8 9 10 9 7 8 8 9 10 11 11 11 11 12 11 13 11 11 11 11 10 10 10 8 7 8 8 6 6 5 5 4 5 6 5 5 5 5 5 5 5
3 4 8 7 4 3 7 7 6 5 3 5 5 5 7 3 8 5 7 11 6 1 4 5 7 8 7 6 7 7 6 9 8 11 12 14 13 14 17 17 17 16 11 4 4 7 7 8 9 9 9 10 13 12 13 14 14 13 12 13 12 10 10 11 11 10 10 9 9 8 7 6 6 6 6 5 5 6 5 4 4 5 5 5 5 5
3 7 10 5 4 4 4 5 6 5 6 5 5 6 6 6 5 8 9 8 10 3 8 9 11 11 6 7 7 5 7 7 9 12 13 14 14 13 14 17 17 13 10 10 9 9 11 12 12 10 11 11 12 11 11 11 11 12 12 11 11 10 10 9 10 10 10 7 7 7 5 7 4 2 4 6 5 5 5 4 4 5 5 5 5 5
6 7 7 8 6 5 6 5 6 5 4 5 6 6 8 3 3 6 4 3 5 3 4 4 8 7 4 5 7 8 8 6 8 11 13 12 15 17 16 16 16 16 14 13 14 13 11 13 14 13 12 12 11 12 11 12 14 12 11 11 11 10 9 8 8 8 7 8 7 7 8 7 7 6 3 3 4 4 4 4 4 4 5 5 5 5
11 9 0 1 1 3 6 7 5 5 7 6 7 7 6 3 4 7 7 5 8 12 6 7 8 7 2 5 7 6 8 7 8 7 11 11 13 15 15 16 18 19 16 16 15 13 14 14 14 15 16 14 14 14 15 15 14 11 12 11 11 10 10 8 9 9 9 9 8 7 7 7 7 5 5 4 4 5 5 5 5 5 5 5 5 5
10 9 5 5 5 4 5 7 7 6 6 6 6 9 9 7 8 7 7 6 4 8 8 2 5 5 3 8 10 8 4 5 6 8 9 10 10 12 13 13 13 16 19 21 19 19 18 17 16 15 14 14 14 15 16 14 13 11 11 11 11 9 9 9 9 11 10 10 10 10 10 10 8 9 9 10 9 6 6 6 4 4 5 5 5 4
6 3 5 6 6 6 5 6 7 6 7 5 5 8 11 10 9 9 10 3 5 8 7 4 7 6 5 4 5 5 4 7 6 7 11 9 9 11 14 15 14 14 12 14 19 20 18 18 17 15 16 17 17 17 14 13 13 12 12 12 12 11 9 9 10 12 11 10 10 12 11 9 9 10 6 4 5 7 4 5 5 5 5 5 5 4
1 3 1 0 1 3 3 5 5 7 7 5 4 6 7 9 10 11 10 9 7 4 7 0 3 3 3 6 6 4 3 5 6 9 11 8 10 12 14 17 17 16 15 15 15 16 20 21 20 19 19 17 18 15 13 13 13 15 14 13 13 11 10 9 9 11 12 11 10 11 10 9 9 9 8 6 5 3 5 6 5 5 4 4 4 5
2 2 2 5 3 3 5 5 6 5 5 5 8 9 9 9 10 10 8 7 7 5 9 4 3 5 4 6 6 1 4 5 6 9 12 11 10 15 16 18 18 17 16 14 14 16 15 17 18 19 20 19 17 14 15 16 15 13 12 12 11 11 10 9 12 11 11 11 11 10 9 8 6 7 7 6 5 6 5 6 5 5 5 4 3 4
1 5 6 5 2 5 4 6 6 4 2 6 6 3 5 6 8 8 6 6 6 3 7 9 5 5 6 6 5 2 4 8 8 10 12 12 12 11 13 12 14 14 14 14 15 14 16 16 17 18 18 16 15 14 13 11 11 12 11 12 13 12 10 10 12 12 11 11 11 10 10 11 8 6 6 6 7 6 6 6 6 5 5 5 4 4
5 2 3 2 3 3 4 5 4 4 9 7 5 6 6 5 7 4 4 4 2 4 7 11 6 7 8 6 7 6 5 6 7 8 8 9 7 5 9 11 11 11 12 14 15 14 14 15 17 16 15 14 11 9 12 13 13 12 12 13 13 13 10 11 12 12 12 11 11 10 11 11 11 10 9 8 7 6 6 7 6 6 5 5 5 5
3 3 2 3 8 6 5 7 5 5 5 1 2 3 4 6 0 2 2 3 5 6 8 9 7 9 10 3 6 6 7 7 8 9 9 9 7 5 8 11 13 13 13 14 14 15 16 14 13 11 10 10 11 11 13 12 12 12 12 12 14 12 12 12 12 12 12 11 11 10 11 12 11 12 9 10 9 9 8 8 7 5 5 5 5 5
6 9 4 5 4 8 3 5 7 7 4 4 3 1 1 4 2 4 3 4 5 7 6 5 5 4 11 7 7 7 9 9 7 8 10 11 10 5 8 11 13 13 12 14 15 15 15 17 16 14 13 11 12 13 16 16 13 13 12 14 15 14 13 14 13 14 13 11 11 11 11 11 10 11 11 10 10 9 8 8 8 7 7 6 6 5
6 3 2 4 3 6 7 8 4 4 4 5 4 3 2 3 1 3 4 2 3 4 5 4 4 7 2 5 12 15 12 10 11 9 9 10 8 8 6 10 10 13 16 15 16 16 17 17 17 18 17 16 15 15 15 14 13 13 12 14 16 16 14 13 14 14 13 12 11 11 11 10 10 10 10 9 10 9 8 8 8 8 8 8 7 7
2 7 7 5 2 4 10 11 9 6 1 4 3 5 6 3 3 3 3 4 6 7 4 6 4 3 4 4 5 12 13 11 11 11 10 10 11 11 9 9 14 12 13 16 17 18 19 19 20 18 18 16 16 17 16 14 14 13 13 14 15 14 13 13 14 13 14 12 11 11 10 10 9 10 9 9 8 8 8 7 8 7 6 7 6 7
8 7 7 4 4 1 2 1 3 7 7 7 6 1 3 5 3 2 3 1 1 2 4 1 4 5 7 4 6 8 8 7 6 5 5 8 8 8 8 5 12 13 14 15 17 19 20 20 20 18 17 17 16 17 15 16 15 15 15 15 16 17 16 16 15 14 14 13 11 11 11 11 11 9 9 8 7 7 7 8 9 7 7 5 6 5
0 6 3 4 4 5 8 3 4 4 5 1 4 5 8 5 2 2 3 2 1 3 4 2 2 5 6 8 8 6 4 6 4 5 5 7 9 7 7 7 7 12 12 14 16 17 19 18 19 19 18 16 16 16 18 18 18 19 16 15 15 14 12 14 14 14 13 12 12 12 11 11 11 12 11 10 10 9 7 7 7 8 7 6 5 6
4 7 4 2 6 4 6 5 3 3 2 2 1 6 4 2 2 4 4 2 2 3 5 2 6 3 4 8 5 3 5 7 5 5 7 8 9 8 9 10 6 12 13 14 16 18 20 21 21 18 17 19 20 20 20 21 18 17 16 17 17 16 17 15 14 13 13 14 13 12 12 12 12 11 11 10 10 9 8 7 6 7 7 7 6 6
3 8 6 7 10 10 3 2 6 6 7 7 6 0 1 0 1 3 2 0 1 2 2 3 4 3 7 6 3 1 5 7 9 6 5 8 7 8 9 12 12 8 12 15 16 17 17 17 18 19 19 18 18 19 20 20 18 15 14 14 15 17 17 16 13 12 10 11 10 10 11 12 11 10 10 9 9 9 9 9 8 9 8 7 6 7
1 3 6 2 2 1 2 3 5 4 2 6 2 6 1 2 2 2 3 2 2 2 0 5 1 5 4 4 5 5 5 4 4 4 5 5 7 8 8 10 13 9 13 15 16 17 17 18 19 19 18 18 18 18 16 15 13 15 14 13 12 10 9 10 11 11 12 11 10 10 10 11 10 10 10 10 10 10 10 10 9 9 9 8 7 7
2 2 4 4 2 2 1 2 5 5 4 3 5 3 2 2 1 3 1 2 2 2 3 2 3 6 8 4 3 4 3 3 3 4 6 6 7 9 9 12 13 11 13 15 17 17 18 18 19 19 18 18 18 17 16 15 17 16 13 13 13 15 15 14 13 12 12 11 11 13 13 12 11 11 10 10 10 11 10 10 9 9 8 7 7 8
2 3 7 4 3 4 6 3 2 3 2 2 6 7 7 6 4 1 7 2 2 2 2 1 6 8 7 3 4 3 2 2 4 5 8 8 10 11 12 12 13 12 15 17 17 18 18 19 20 19 17 15 15 14 15 15 14 12 13 13 14 13 13 14 13 13 12 11 12 14 13 12 10 10 10 11 10 10 10 10 9 9 8 9 7 8
4 2 2 7 7 7 9 6 3 2 3 4 2 4 6 4 3 2 2 5 1 3 1 2 0 8 2 4 5 3 4 4 5 5 7 8 10 11 13 16 14 16 17 17 18 19 19 21 21 20 19 18 18 17 17 16 15 15 15 14 13 15 15 15 14 12 12 12 13 14 13 12 11 11 11 12 10 10 10 9 9 8 10 8 8 6
6 0 2 9 8 8 10 11 11 8 4 3 5 4 4 6 6 7 6 3 1 4 3 1 3 4 2 2 2 6 7 7 4 5 9 11 12 14 16 19 15 14 16 18 19 19 19 19 18 17 18 17 17 16 17 16 16 15 14 14 13 14 14 12 12 12 12 12 13 14 13 13 12 13 12 12 10 11 10 9 9 8 9 9 8 8
3 3 3 4 3 5 4 2 0 1 3 3 3 4 6 4 6 5 3 2 4 4 4 2 8 8 3 10 13 10 12 14 13 10 7 12 15 15 16 18 12 14 16 18 19 19 18 16 17 16 17 18 17 16 16 16 15 15 14 13 14 13 13 12 11 12 13 14 15 14 14 13 13 13 13 12 9 11 10 10 9 8 9 9 8 7
5 3 6 4 6 4 3 1 3 3 6 3 2 4 6 8 6 3 3 2 5 3 7 5 10 5 5 9 11 9 10 15 14 10 8 6 10 17 17 18 13 14 16 17 17 17 18 17 17 17 18 17 17 17 17 16 15 14 14 15 14 14 13 12 12 13 13 13 14 14 14 13 12 13 13 12 11 11 11 10 10 10 9 10 10 8
2 3 5 8 7 8 7 4 4 1 3 5 6 10 6 7 8 6 2 3 8 3 7 7 6 12 14 13 8 11 11 13 15 15 14 14 13 14 14 16 13 14 15 17 18 17 16 16 20 20 19 18 18 16 16 16 16 15 15 15 14 13 13 13 13 13 14 14 14 13 14 13 13 12 12 11 11 10 10 10 10 10 10 9 10 10
2 4 9 11 13 13 10 9 7 1 1 3 4 7 7 7 8 9 9 7 4 2 11 1 3 5 13 10 8 12 14 14 13 12 12 11 12 13 13 16 16 14 13 14 16 18 20 20 19 19 19 18 17 17 16 16 16 17 17 17 15 14 13 11 13 14 14 14 13 14 13 13 13 12 12 11 11 11 10 9 10 10 9 9 10 9
3 4 3 8 14 15 12 10 10 5 3 4 5 6 7 7 6 9 6 7 4 4 8 7 6 10 14 11 12 13 12 14 15 15 12 12 13 13 14 16 13 14 14 17 19 19 19 20 19 19 18 18 18 18 17 15 14 13 12 12 13 14 14 13 13 14 14 14 14 14 13 11 11 11 11 10 10 11 11 10 10 10 9 9 9 8
1 6 5 7 10 8 8 9 9 8 6 5 7 7 9 8 8 6 5 6 8 7 6 9 11 14 13 13 15 17 13 11 12 9 9 9 12 11 14 16 12 13 15 18 18 19 20 21 20 20 20 18 18 18 17 15 15 15 15 14 13 13 13 13 13 14 14 14 13 12 13 12 11 11 12 11 11 11 11 10 10 10 10 10 9 9
3 4 5 3 1 6 10 8 8 9 6 7 7 6 8 8 8 10 6 6 5 6 6 6 9 15 12 10 16 15 9 7 9 10 11 11 9 9 13 14 10 13 16 18 18 19 19 19 19 19 19 19 20 20 18 16 16 15 15 14 14 14 13 14 13 13 14 14 13 13 12 12 11 12 13 13 11 11 11 11 10 10 10 9 9 9
6 4 2 3 2 3 2 3 9 8 7 7 8 6 8 9 9 8 8 6 6 8 5 5 7 11 13 15 7 5 7 9 12 14 12 9 7 8 11 13 9 12 16 17 18 18 18 18 18 19 19 19 20 19 17 16 15 14 15 14 14 13 13 13 13 13 13 13 13 13 14 13 13 11 10 12 12 12 11 11 11 11 10 10 9 8
5 2 3 2 2 2 3 4 6 4 4 2 9 11 12 9 7 5 7 7 11 9 7 7 13 11 14 8 7 8 7 10 14 13 10 8 9 8 9 10 8 11 14 16 16 17 18 19 20 21 21 19 18 18 18 18 16 16 15 15 14 12 13 13 13 13 13 13 13 14 13 13 13 14 12 11 12 12 11 11 11 11 10 11 10 9
4 5 4 1 3 4 4 6 1 4 3 6 7 10 13 13 13 11 8 11 10 8 9 9 11 10 8 6 5 10 10 13 13 13 7 8 10 12 11 8 7 8 13 14 16 18 19 18 17 18 20 20 19 19 18 17 18 17 15 14 13 14 14 14 13 13 13 13 14 14 13 13 13 13 14 13 11 11 12 12 12 11 10 9 9 10
4 3 3 1 1 5 3 2 5 1 6 5 4 2 12 14 13 15 13 12 13 13 13 12 12 12 13 7 8 8 10 14 13 12 12 11 9 11 12 11 10 6 9 14 14 15 16 18 18 17 17 15 15 13 12 12 11 11 11 12 13 13 14 14 14 13 13 13 13 14 13 13 13 13 13 14 14 12 11 12 11 11 10 9 10 10
2 3 2 1 2 2 1 3 2 3 5 4 2 7 2 5 5 7 7 10 11 12 11 11 14 14 9 8 7 8 9 11 15 18 13 12 10 11 10 11 10 8 9 11 15 17 17 17 18 19 18 15 14 12 13 14 13 13 13 13 13 12 13 13 14 13 13 14 14 14 14 14 13 12 11 13 13 13 12 11 12 12 10 9 8 8
8 0 0 2 0 1 1 2 6 3 3 7 4 5 5 1 0 4 7 8 3 1 2 5 8 9 9 9 7 8 6 9 13 18 19 2 4 9 11 10 10 12 13 14 14 15 16 17 17 18 16 15 16 16 14 12 12 13 13 13 12 13 13 13 14 14 14 14 14 14 14 14 14 13 13 12 13 12 12 11 11 10 9 9 9 9
2 2 2 1 1 1 3 4 5 4 1 6 4 6 3 2 6 6 3 2 2 2 2 2 3 6 8 7 8 5 6 10 13 15 17 11 3 2 3 5 8 9 8 9 10 9 7 7 8 10 14 16 17 16 14 14 14 14 13 13 12 13 13 14 14 13 14 14 15 15 14 14 14 14 13 13 14 13 11 10 9 10 9 10 10 9
5 3 2 1 2 3 2 2 1 1 1 4 11 9 6 4 5 4 2 5 2 2 4 2 7 8 5 7 9 5 6 6 13 14 18 17 4 2 0 2 2 3 8 8 10 10 11 11 13 14 12 12 14 13 13 15 15 14 14 13 13 14 14 14 13 14 15 15 14 14 13 13 13 14 14 12 11 12 12 11 10 8 8 8 8 9
5 3 4 1 1 0 1 1 2 2 0 3 10 13 11 10 1 2 2 4 3 6 6 6 7 9 9 8 6 2 2 7 12 17 13 10 9 4 4 1 1 4 6 1 3 4 5 7 11 11 12 14 15 14 15 15 14 15 14 14 13 14 15 14 14 14 13 13 13 12 12 12 14 14 14 14 12 10 10 9 8 9 9 7 7 7
4 4 2 2 2 3 1 2 2 3 2 3 7 15 11 5 2 2 6 2 4 8 8 6 8 8 8 9 7 6 6 11 16 15 14 13 11 1 2 1 0 3 4 14 13 12 11 12 15 17 19 17 15 14 14 14 14 15 14 14 14 15 14 11 11 13 13 13 12 12 12 10 7 8 6 9 12 11 9 8 9 9 9 8 7 7
2 2 2 0 3 4 0 1 3 3 4 3 9 13 7 1 0 5 1 2 7 9 7 7 10 10 8 11 8 9 12 13 16 16 15 13 8 2 3 2 1 4 5 7 7 14 14 13 13 12 11 11 16 16 15 15 15 14 14 14 15 12 10 11 12 12 12 13 13 12 11 9 9 10 10 9 10 11 11 9 9 9 9 7 8 9
4 3 4 4 3 0 2 2 4 2 1 4 14 10 4 2 3 6 9 11 6 8 8 9 9 14 10 12 13 13 13 14 10 6 5 4 8 7 8 10 11 12 9 7 9 10 14 13 14 17 17 14 15 15 15 16 15 14 13 14 12 10 10 11 11 11 11 12 12 11 12 11 12 11 8 8 9 11 11 10 10 9 9 9 9 9
3 2 2 1 2 4 3 3 1 5 9 6 4 4 6 4 6 9 5 7 9 4 6 8 9 10 13 11 12 15 17 9 6 8 8 5 2 0 4 8 10 12 12 11 9 10 10 2 10 13 13 13 13 14 14 16 15 13 13 12 10 10 11 11 11 11 11 11 11 11 12 12 12 10 9 10 10 10 11 11 10 10 9 9 10 9
1 2 2 2 1 0 2 3 9 9 10 9 5 6 7 9 7 8 8 7 9 5 2 5 9 11 10 10 10 10 3 4 3 3 5 3 3 3 3 2 0 3 6 7 8 9 13 8 4 3 4 6 11 11 12 12 14 15 13 10 11 12 12 12 12 12 12 11 11 11 11 11 11 10 10 10 11 11 10 10 11 10 8 9 9 9
3 2 2 1 3 4 6 12 10 6 10 9 5 4 5 10 8 6 7 7 7 7 7 7 9 11 11 6 4 6 3 1 5 7 6 2 3 2 1 2 3 6 5 5 7 8 9 12 12 9 7 4 4 4 5 7 13 15 12 12 13 13 13 13 12 11 12 11 11 11 12 11 10 9 10 10 9 11 10 11 10 10 9 9 9 9
2 1 1 2 2 4 5 2 4 5 7 10 8 6 4 4 7 7 8 7 7 8 8 7 7 8 9 7 3 8 4 2 2 6 6 4 3 1 1 2 3 5 9 10 10 12 12 13 13 13 14 14 12 10 8 6 3 6 8 12 12 12 12 12 12 11 10 11 11 10 11 12 10 8 8 8 7 7 8 9 9 10 10 10 10 9
5 1 1 3 2 1 4 9 4 5 9 8 6 4 7 11 10 9 7 7 6 6 7 9 9 10 8 8 6 9 8 5 5 5 4 3 2 0 1 1 3 3 3 5 8 10 12 14 15 16 15 15 17 18 17 17 17 16 14 11 12 11 12 12 12 11 11 11 10 10 10 10 12 12 9 9 9 8 7 7 9 10 11 12 11 11
5 3 4 0 2 7 6 5 5 3 3 3 5 2 4 5 9 12 9 10 8 9 9 10 7 6 8 10 10 9 7 4 3 3 4 4 3 2 1 2 3 4 4 6 4 6 8 9 12 15 15 12 7 7 8 9 9 9 13 13 12 13 12 12 11 10 11 11 10 10 9 10 10 9 10 9 9 9 10 12 11 10 9 6 8 11
2 4 3 4 5 7 4 8 6 6 5 7 3 3 8 7 7 12 13 11 9 9 9 11 13 13 9 5 4 2 1 3 4 4 5 4 3 2 2 3 3 5 6 6 6 5 6 7 9 8 9 9 5 3 6 9 9 9 11 11 12 13 13 12 10 11 10 10 10 9 10 9 9 8 9 9 9 8 4 7 5 5 8 8 8 9
3 5 5 8 6 8 8 7 5 5 7 9 5 4 6 7 6 9 10 9 10 10 10 9 10 12 8 6 2 2 3 4 6 5 5 5 3 2 2 3 4 5 5 5 7 8 8 8 10 11 10 9 10 10 7 6 7 8 9 10 12 13 13 13 11 9 9 9 9 10 10 10 9 8 8 8 8 7 8 6 5 7 4 6 7 8
Wind_Direction
151 168 227 223 236 224 283 259 245 274 331 299 297 276 253 266 275 284 284 270 307 307 234 230 247 252 253 247 252 254 267 189 219 211 198 194 189 189 190 193 201 202 210 208 197 187 180 172 162 150 151 156 158 165 173 180 186 186 182 177 175 171 169 169 170 169 164 169 167 171 178 175 167 169 170 166 156 179 186 175 161 145 142 142 142 141
55 322 259 240 265 240 239 237 248 271 252 254 267 274 281 256 271 264 273 294 292 239 285 262 271 265 257 259 242 253 245 250 204 219 209 197 190 193 189 193 198 202 209 138 129 145 142 156 156 153 156 159 166 180 176 183 184 183 184 182 175 169 173 176 173 166 167 173 176 166 169 151 156 165 171 168 168 188 185 171 154 146 144 147 148 142
274 243 253 257 232 245 258 267 267 246 256 263 244 267 275 259 255 269 267 271 282 270 258 269 267 272 259 242 252 227 231 239 212 208 208 199 193 196 194 191 195 194 190 182 176 170 174 167 164 162 166 173 175 169 179 183 182 188 185 184 175 173 174 178 169 164 169 163 153 154 151 150 139 146 172 169 171 172 173 161 151 148 149 146 143 143
283 254 251 245 235 230 258 244 248 269 260 246 266 266 250 263 269 296 268 294 282 204 274 282 283 279 268 262 255 244 225 237 235 210 217 204 194 192 197 191 191 192 186 183 181 181 177 179 173 169 170 174 170 171 175 185 190 188 188 180 175 176 174 169 171 163 151 144 136 133 134 136 144 157 133 129 143 152 140 151 150 150 151 147 143 147
236 258 325 324 237 199 248 258 242 232 256 237 227 236 248 238 228 215 273 296 299 288 235 270 291 290 255 254 264 265 242 239 247 219 229 214 204 201 199 195 190 187 185 186 184 185 179 179 180 177 178 171 172 178 184 187 189 188 183 178 175 176 177 167 166 155 142 134 126 116 108 112 94 95 124 137 161 170 166 147 150 160 145 140 142 147
268 265 249 261 272 245 231 264 246 210 246 262 232 219 232 224 242 253 259 281 307 302 274 146 294 281 245 226 231 244 271 254 251 240 230 223 211 198 202 204 206 201 186 182 185 184 182 184 183 183 169 171 180 184 189 186 184 179 180 177 175 176 174 168 165 155 149 153 145 144 146 155 159 150 171 185 171 159 173 169 141 129 132 133 136 144
234 237 200 233 247 261 238 235 244 189 231 236 258 205 223 229 232 242 250 214 246 238 273 139 210 276 325 297 242 238 256 255 268 243 237 219 213 197 196 200 201 202 204 200 188 182 180 184 184 179 174 181 184 191 181 179 182 181 180 180 178 177 174 170 165 158 153 155 160 162 166 167 168 168 177 150 165 168 152 132 140 132 125 133 139 144
186 254 17 157 225 239 250 253 243 186 208 244 242 223 214 217 228 234 236 218 237 238 272 129 152 239 298 288 268 241 238 270 280 273 254 223 201 207 200 198 199 198 195 191 198 195 184 180 181 180 184 185 190 182 172 178 181 182 182 178 179 177 174 172 165 163 161 159 162 163 164 164 165 174 165 158 144 126 135 136 134 131 127 128 137 138
189 290 270 298 290 258 246 231 247 192 188 221 243 225 225 214 224 232 225 230 230 228 263 268 207 268 248 261 278 326 315 297 273 257 260 244 206 203 206 201 199 194 190 191 192 191 193 190 186 185 185 189 182 171 177 183 183 180 178 178 177 176 172 171 168 165 163 159 163 162 159 160 161 158 152 135 129 137 138 133 131 132 123 114 108 122
281 215 240 229 209 257 246 257 254 207 213 258 258 275 243 236 229 225 219 221 244 202 253 255 175 225 260 245 250 302 216 252 252 255 253 247 232 201 210 211 204 194 186 187 192 192 189 190 193 194 190 182 178 179 176 171 173 179 177 177 176 178 176 170 170 163 162 159 158 160 163 158 155 144 129 138 142 143 148 144 143 134 129 124 114 113
240 303 247 236 234 216 248 258 246 238 251 264 291 279 282 222 220 227 208 180 248 224 235 240 209 191 260 228 213 224 222 204 240 260 262 263 250 215 188 206 207 197 191 185 183 189 194 193 194 193 190 183 170 165 167 175 180 178 177 177 179 180 172 171 169 163 164 162 162 163 165 162 157 152 148 148 148 145 149 149 147 144 134 126 128 125
260 232 221 224 209 241 236 277 274 265 251 224 284 270 311 316 343 191 224 151 204 244 239 233 209 184 239 266 247 219 240 217 212 239 262 268 265 202 202 199 207 200 189 185 182 184 185 190 200 195 190 175 170 165 175 180 180 177 179 178 179 178 176 175 168 165 164 165 167 163 164 165 162 157 162 164 162 164 161 153 150 139 126 124 122 125
264 244 224 244 186 201 241 274 280 271 262 198 223 303 190 274 176 248 153 221 210 216 242 221 168 219 234 236 249 239 228 244 223 237 253 264 269 229 217 215 201 200 193 185 185 182 183 187 187 187 189 180 175 179 181 183 179 178 178 180 180 183 179 176 171 169 166 165 169 165 167 166 163 163 166 168 167 170 163 159 153 153 149 143 136 152
275 277 316 250 238 203 204 223 238 272 234 192 202 208 206 236 267 215 246 192 241 290 262 236 172 233 239 253 223 241 239 231 236 228 239 247 254 262 206 214 218 206 193 189 185 184 185 186 186 187 188 186 183 182 182 180 180 181 182 183 184 186 181 176 172 168 167 170 167 165 166 165 163 166 168 171 171 172 165 163 163 163 161 162 161 157
318 323 271 170 260 219 190 208 206 209 212 189 153 137 178 163 154 213 192 196 210 214 243 226 166 239 187 235 214 225 232 234 236 232 238 248 256 259 252 183 211 211 204 191 187 187 187 185 184 187 189 187 184 181 180 180 183 183 183 184 187 182 182 177 174 170 168 167 167 166 165 163 165 165 170 173 174 170 164 164 161 158 155 162 160 153
229 232 248 203 212 136 274 267 208 215 254 248 243 160 92 238 155 169 211 136 191 220 258 192 189 197 198 233 223 213 229 241 245 250 252 264 261 259 265 189 196 209 206 198 192 189 186 185 185 187 188 186 182 179 180 182 183 185 186 187 187 184 180 178 174 174 169 166 164 164 165 165 164 165 166 168 171 170 167 164 161 155 155 154 142 133
329 252 270 286 282 236 251 238 237 202 214 306 136 199 223 183 128 281 344 256 122 37 265 197 343 306 302 300 255 248 249 244 234 242 249 257 264 271 273 263 181 209 209 203 194 187 188 186 188 187 186 183 180 180 182 185 187 187 183 182 186 184 181 181 177 170 168 163 162 166 162 162 167 168 171 173 172 168 161 159 154 148 147 140 145 139
185 257 269 50 298 276 214 174 206 237 187 122 289 243 248 195 150 127 208 328 191 177 255 95 197 256 239 261 313 157 193 247 258 254 256 263 276 286 275 273 236 182 200 201 196 192 189 187 186 186 187 184 182 183 185 188 188 185 182 183 184 180 180 180 173 169 168 165 164 161 164 166 167 170 172 171 169 161 154 151 143 137 142 160 156 144
161 282 278 227 238 258 237 248 294 269 213 198 198 190 93 341 230 303 90 291 212 197 263 301 201 222 193 245 353 240 212 240 248 261 289 292 294 283 279 275 274 184 187 191 197 196 192 188 187 187 187 186 186 186 187 186 181 180 182 186 186 185 183 175 171 165 161 161 161 162 163 163 166 169 169 168 163 159 160 160 161 161 153 142 144 142
136 199 288 308 143 289 8 116 224 258 269 220 203 252 163 140 233 4 199 173 117 242 50 287 69 231 221 209 197 243 247 275 308 326 287 276 278 275 272 276 273 225 197 189 190 192 190 188 189 188 187 184 183 184 186 183 181 182 181 178 180 176 168 164 165 162 162 163 156 155 155 163 165 166 167 165 162 166 166 165 165 156 149 157 151 149
245 155 261 278 298 36 282 184 214 185 192 191 174 193 168 215 224 145 205 188 167 184 174 202 320 283 256 216 164 217 247 257 231 285 284 277 278 278 275 273 267 231 203 192 188 187 187 188 189 190 188 185 184 184 178 175 181 182 175 175 176 173 171 171 168 165 164 159 157 155 161 162 163 165 163 163 168 166 167 166 164 160 154 142 155 149
183 191 235 292 350 258 239 225 172 177 183 175 180 202 172 180 229 259 275 335 221 114 225 123 258 261 266 152 142 157 41 333 278 264 283 296 297 298 294 275 252 223 203 192 187 184 185 188 189 189 186 182 178 177 175 178 179 175 175 179 176 173 174 170 167 168 163 161 158 159 159 160 161 162 162 164 169 169 166 165 163 154 146 158 156 156
165 161 267 266 235 238 245 254 228 235 282 273 203 261 191 150 134 124 174 274 334 250 229 268 357 266 17 66 82 41 309 294 301 298 308 310 305 305 300 287 258 217 199 191 188 186 186 187 188 184 179 176 177 178 177 176 178 179 178 175 178 178 179 172 168 163 159 158 156 158 157 158 163 163 165 167 170 170 166 161 154 155 155 156 156 157
114 210 208 254 279 272 262 254 249 237 214 263 253 209 155 177 181 196 189 194 263 300 359 346 235 245 177 227 347 353 330 315 312 345 336 323 322 316 304 302 271 218 200 191 188 187 188 188 183 177 175 174 176 175 176 178 180 179 176 177 177 180 173 166 162 160 159 155 154 154 156 162 162 164 167 169 170 169 163 154 155 157 155 152 155 160
167 200 192 269 304 315 310 29 16 54 160 195 197 198 196 195 186 195 195 184 243 217 195 171 247 241 281 350 324 338 338 324 325 332 342 330 322 310 309 309 277 214 199 194 190 187 184 179 175 174 173 177 177 175 176 177 178 175 176 177 178 178 172 165 163 161 160 156 154 157 159 162 163 166 167 168 167 164 156 159 153 156 153 153 160 160
209 179 156 209 222 239 258 241 244 233 210 211 195 178 198 190 188 127 219 192 227 250 202 214 252 272 323 312 308 321 327 317 313 311 319 324 308 308 312 314 279 213 200 191 187 183 180 175 172 174 178 177 176 174 175 176 176 176 176 179 177 172 169 167 166 162 159 158 156 159 161 162 164 167 167 165 163 161 162 160 159 157 157 161 162 160
197 186 204 214 221 233 227 217 258 142 137 191 205 185 197 196 190 184 134 174 215 220 238 251 276 303 299 299 317 312 313 307 308 317 330 324 308 297 304 313 278 221 199 186 182 180 176 173 176 179 177 177 175 175 175 174 175 176 177 177 175 172 171 168 165 162 160 160 159 160 164 164 167 166 166 164 161 160 159 161 160 158 162 166 163 163
96 233 225 225 240 246 246 231 249 188 319 268 191 208 190 184 185 187 197 225 184 236 268 230 249 294 285 297 306 306 306 305 303 311 314 303 294 294 303 303 282 225 200 184 180 179 177 176 177 178 178 174 175 174 174 176 178 177 176 175 174 171 169 168 165 163 160 159 160 162 165 165 164 164 164 161 158 158 159 158 158 160 157 159 164 169
162 241 239 199 239 245 248 250 255 276 238 240 209 185 200 204 193 196 220 223 203 208 247 271 279 280 285 293 298 292 293 295 303 303 289 283 281 291 309 305 275 216 194 186 183 180 176 176 179 178 174 175 172 173 173 176 179 177 176 173 172 170 170 166 165 164 160 161 163 163 161 162 162 161 160 158 153 152 156 162 159 156 159 166 167 169
86 254 226 217 252 258 247 238 251 250 256 247 232 212 200 193 209 209 223 218 211 236 237 267 285 280 282 294 291 285 287 286 283 280 282 278 282 302 311 296 258 211 190 188 184 180 179 179 177 175 174 172 173 173 174 176 177 176 173 172 171 172 168 163 166 164 162 165 163 158 157 159 160 159 153 155 159 160 158 158 158 156 163 169 168 164
197 267 149 213 236 251 250 245 240 235 228 261 255 222 201 185 197 215 228 241 234 261 257 285 291 288 287 276 273 279 293 280 277 276 281 281 285 308 309 291 234 201 193 189 185 181 181 179 177 173 173 174 174 175 175 177 176 175 175 173 172 172 168 166 165 165 165 165 159 156 154 153 158 160 161 160 158 157 158 160 159 158 165 167 164 162
184 271 159 155 182 309 308 192 229 218 219 234 276 256 195 185 198 205 215 210 218 237 259 287 292 276 278 270 276 285 278 278 283 291 293 287 291 307 317 302 225 201 194 192 187 184 179 175 174 175 177 177 177 176 175 174 174 172 176 174 174 171 166 167 166 166 164 161 158 157 158 158 157 161 161 156 157 158 162 160 159 159 166 165 164 163
204 251 303 278 342 199 257 250 273 160 136 235 250 228 194 200 198 194 217 200 213 211 231 235 241 247 254 282 315 291 285 285 290 288 286 288 288 290 296 314 267 210 200 190 189 185 179 177 177 179 179 178 177 177 178 173 171 176 176 175 172 162 167 167 167 165 162 160 159 159 159 158 161 160 161 164 157 159 160 162 159 161 166 171 169 157
204 232 254 253 334 276 161 249 242 94 110 230 232 182 177 190 193 202 214 214 220 191 222 220 240 259 282 299 279 285 294 294 283 279 256 252 280 285 285 278 289 256 207 198 191 187 183 180 180 180 178 178 180 180 176 174 176 177 173 167 161 164 167 164 164 164 163 161 160 159 160 161 162 165 164 160 159 161 163 163 164 167 169 165 161 165
240 227 255 143 238 286 340 59 88 86 223 245 324 210 190 192 193 205 213 212 216 220 235 255 265 263 257 246 241 261 276 276 280 276 277 255 239 255 261 270 256 252 234 198 196 194 189 183 178 177 178 178 175 172 168 174 171 157 156 160 164 167 164 164 162 163 161 162 161 158 159 161 163 166 166 162 159 163 167 166 163 166 169 168 169 170
244 218 216 276 212 274 41 31 94 230 246 307 315 39 331 183 214 203 245 242 231 222 217 236 245 254 245 256 278 267 269 298 303 291 264 242 225 230 241 242 241 219 230 217 197 195 190 186 179 174 175 170 165 168 172 172 164 161 167 164 164 164 163 161 161 163 162 161 161 162 162 161 162 163 165 160 159 161 165 166 167 169 168 166 169 171
259 220 15 292 334 3 257 237 224 289 353 360 13 13 5 2 313 160 212 256 226 186 205 231 257 251 241 253 257 286 328 320 305 295 294 227 205 210 222 229 227 222 210 214 203 197 194 186 179 174 166 164 169 169 171 163 161 161 159 162 164 162 161 161 163 164 164 161 162 164 163 162 161 164 165 163 161 162 162 165 167 166 162 166 170 167
176 180 243 351 296 124 314 331 342 26 32 286 257 302 307 295 259 258 176 282 267 22 12 344 276 264 273 292 296 339 357 322 315 298 297 316 45 169 218 232 228 228 208 204 204 198 192 181 162 157 168 168 170 170 164 159 159 157 160 163 162 162 164 166 168 165 162 165 166 165 164 163 163 164 167 164 166 160 162 165 163 167 168 170 168 171
32 71 103 88 312 8 16 22 286 84 250 220 283 303 311 251 246 227 141 272 263 7 359 350 302 295 299 306 306 14 360 327 287 285 287 305 315 169 9 284 197 155 144 174 202 177 168 167 167 168 165 166 166 162 158 157 156 156 161 163 166 166 168 172 168 166 167 167 165 163 162 163 165 165 165 165 161 156 159 167 166 161 162 167 168 167
37 356 3 33 351 346 77 0 296 212 88 319 314 328 324 306 262 69 353 281 287 339 333 338 315 302 304 295 303 320 211 265 274 266 289 319 299 136 146 72 331 108 118 195 194 147 145 151 144 149 160 169 173 163 157 155 157 160 162 166 165 169 174 177 172 166 159 158 161 159 161 167 170 169 164 159 151 154 160 153 149 154 159 156 159 155
4 336 44 1 359 336 16 294 289 307 280 281 325 321 318 306 67 124 213 236 302 324 323 323 298 293 305 310 316 291 238 242 261 281 299 312 313 345 95 91 72 343 229 178 169 148 156 165 169 172 173 174 164 159 157 157 159 162 164 165 169 178 176 164 157 157 159 158 157 159 160 161 148 134 141 146 143 150 146 149 151 149 152 152 148 144
353 306 281 110 17 340 242 195 249 246 239 281 339 333 311 356 308 232 226 307 320 311 313 304 303 308 306 295 288 276 269 266 276 273 264 257 236 261 134 91 287 249 274 277 181 160 164 172 174 173 171 166 163 161 160 160 163 164 162 167 176 172 150 148 154 155 155 157 157 154 146 137 139 162 162 157 150 144 144 145 147 154 154 149 151 155
333 331 339 351 323 272 43 339 340 351 238 43 352 334 5 48 254 321 324 325 314 294 305 306 303 295 301 293 287 271 273 272 263 299 289 204 165 168 156 149 166 194 197 193 198 196 176 173 178 174 173 169 168 163 161 160 159 161 163 170 163 143 144 147 150 152 151 151 151 143 138 143 156 154 155 155 156 145 143 144 149 154 152 153 153 154
270 322 347 345 355 339 345 5 314 236 286 330 354 295 302 304 296 298 302 286 294 246 260 281 287 279 271 250 249 250 246 266 339 349 321 326 341 174 154 157 159 160 153 147 115 56 17 314 184 175 169 164 164 163 160 158 156 157 161 157 141 139 140 146 150 148 148 149 144 141 151 153 153 157 156 158 153 148 147 152 154 155 159 158 155 155
145 217 243 264 260 83 251 237 250 263 277 288 283 266 279 298 308 296 290 285 293 288 223 267 268 271 255 243 245 260 284 340 307 335 292 323 12 17 5 349 198 162 149 149 138 133 129 110 44 73 127 153 159 158 158 156 151 150 150 142 140 146 149 152 152 152 153 152 147 146 151 154 157 158 159 159 152 148 153 153 151 152 157 153 157 161
274 220 186 197 249 231 241 236 264 304 286 291 285 243 287 307 303 303 304 306 300 287 286 280 283 280 281 265 307 292 274 265 360 334 306 9 67 72 105 103 104 92 93 105 120 123 116 111 115 116 98 49 52 57 96 130 146 151 150 147 151 154 153 154 155 157 158 154 152 154 154 154 155 156 158 155 156 154 157 157 158 156 158 158 165 171
264 197 155 226 288 6 322 306 159 251 282 298 301 289 307 284 298 317 313 302 293 291 300 294 283 282 273 288 288 268 283 13 13 308 309 6 13 9 76 137 125 132 143 147 148 137 133 134 138 142 137 135 134 130 125 101 87 125 143 155 155 153 153 154 155 155 155 154 153 150 152 150 150 145 146 145 144 149 154 158 162 161 163 171 175 175
324 221 312 241 278 194 251 298 298 272 265 276 283 339 332 316 327 327 301 297 310 311 330 320 327 320 326 324 321 300 308 349 355 319 320 346 337 313 283 87 100 98 96 130 147 147 146 148 149 151 155 163 168 168 166 166 168 167 161 156 152 150 150 153 157 155 153 150 149 149 151 151 148 146 148 153 152 152 153 165 171 172 177 177 173 171
254 3 293 250 301 276 289 287 310 310 270 268 331 303 247 285 326 319 326 337 343 349 332 317 330 311 323 320 323 312 310 335 334 312 320 332 345 2 41 44 57 77 95 110 124 143 154 158 157 158 157 154 156 158 148 153 154 146 149 152 153 151 153 155 155 154 152 151 148 148 149 147 153 156 156 158 163 169 170 174 180 178 185 194 180 178
351 297 257 8 337 325 320 323 359 353 315 290 287 296 305 326 334 331 341 334 341 339 333 350 340 335 327 291 282 285 314 315 333 351 7 4 2 359 53 79 74 85 93 95 95 104 112 118 122 120 125 125 113 145 154 148 147 148 156 154 154 152 150 147 145 144 146 147 147 146 147 151 157 158 157 158 161 149 88 31 97 167 175 179 193 194
324 282 338 328 311 292 297 325 354 282 256 261 263 291 309 333 327 341 327 333 338 337 334 352 339 314 300 309 334 34 17 23 11 15 23 8 354 9 51 88 92 88 94 98 104 111 120 128 132 133 139 142 133 128 111 124 138 156 161 158 158 156 152 150 146 146 148 150 154 158 157 155 156 159 157 160 157 154 142 125 50 50 110 177 173 177